Overview Statistics Trail Chart Weather Telemetry Raw packets
 

This is the latest recevied weather packets stored in our database for station/object XE2RCS-1. If no packets are shown the sender has not sent any weather packets the latest 10 day(s).

<< 8 9 10 11 12 13 14 >>
Time Temp. Humidity Pressure Rain* Wind** Luminosity Snow
1788545311 28.33° C 38% 1016 hPa 0 mm - - -
1788544710 28.33° C 39% 1015 hPa 0 mm - - -
1788544109 27.78° C 40% 1015 hPa 0 mm - - -
1788543509 28.33° C 38% 1015 hPa 0 mm - - -
1788542908 28.89° C 35% 1018 hPa 0 mm - - -
1788542308 28.89° C 35% 1018 hPa 0 mm - - -
1788541707 28.89° C 36% 1018 hPa 0 mm - - -
1788541106 28.89° C 37% 1016 hPa 0 mm - - -
1788540506 28.89° C 39% 1016 hPa 0 mm - - -
1788539905 27.22° C 40% 1016 hPa 0 mm - - -
1788539305 27.22° C 40% 1018 hPa 0 mm - - -
1788538704 26.67° C 41% 1018 hPa 0 mm - - -
1788538103 26.67° C 42% 1018 hPa 0 mm - - -
1788537503 26.67° C 43% 1016 hPa 0 mm - - -
1788536902 26.67° C 43% 1016 hPa 0 mm - - -
1788536301 25.56° C 51% 1016 hPa 0 mm - - -
1788535701 25.56° C 58% 1018 hPa 0 mm - - -
1788535100 25.56° C 71% 1018 hPa 0 mm - - -
1788534499 25.56° C 71% 1018 hPa 0 mm - - -
1788533899 24.44° C 57% 1016 hPa 0 mm - - -
1788533298 24.44° C 56% 1016 hPa 0 mm - - -
1788532697 23.89° C 57% 1016 hPa 0 mm - - -
1788532097 23.33° C 61% 1018 hPa 0 mm - - -
1788531496 23.33° C 71% 1018 hPa 0 mm - - -
1788530896 23.33° C 71% 1018 hPa 0 mm - - -

* Rain latest hour (hover to see other rain measurements)
** Current wind speed in m/s (hover to see current wind gust speed)